Tracking 32938 objects as of 14-Jan-2026
HD Live streaming from Space Station
objects crossing your sky now

METEOR 2-5 DEB

Track METEOR 2-5 DEB now!
10-day predictions


NORAD ID: 39603
Int'l Code: 1979-095CE
Perigee: 784.5 km
Apogee: 795.1 km
Inclination: 81.2 °
Period: 100.5 minutes
Semi major axis: 7160 km
RCS: Unknown
Launch date: October 31, 1979
Source: Commonwealth of Independent States (former USSR) (CIS)
Launch site: PLESETSK MISSILE AND SPACE COMPLEX (PKMTR)

Note: This is SATELLITE DEBRIS
Your satellite tracking list
Your tracking list is empty




NASA's NSSDC Master Catalog

Two Line Element Set (TLE):
1 39603U 79095CE  26013.12157743  .00003430  00000-0  12558-2 0  9996
2 39603  81.2028 320.6360 0007456 145.7871 214.3794 14.32715644621252
Source of the keplerian elements: AFSPC